| time (UTC) | temp F | wind direction | speed MPH | gust MPH | rain 1hr in | rain 24hr in | rain mn in | humidity % | barometer mb |
| 20260903161517 | 88 | 0 | 2.0 | 5.0 | 0.00 | 0.00 | 0.00 | 46 | 1014.6 |
| 20260903160517 | 88 | 0 | 2.0 | 6.0 | 0.00 | 0.00 | 0.00 | 47 | 1014.6 |
| 20260903155517 | 88 | 0 | 1.0 | 2.0 | 0.00 | 0.00 | 0.00 | 47 | 1014.6 |
| 20260903154517 | 87 | 0 | 2.0 | 4.0 | 0.00 | 0.00 | 0.00 | 48 | 1014.6 |
| 20260903153517 | 87 | 0 | 1.0 | 5.0 | 0.00 | 0.00 | 0.00 | 49 | 1014.6 |
| 20260903152517 | 86 | 0 | 2.0 | 6.0 | 0.00 | 0.00 | 0.00 | 51 | 1014.6 |
| 20260903151517 | 86 | 0 | 1.0 | 3.0 | 0.00 | 0.00 | 0.00 | 50 | 1014.6 |
| 20260903150517 | 85 | 0 | 2.0 | 4.0 | 0.00 | 0.00 | 0.00 | 51 | 1014.6 |
| 20260903145517 | 86 | 0 | 2.0 | 5.0 | 0.00 | 0.00 | 0.00 | 53 | 1014.6 |
| 20260903144517 | 85 | 0.0 | 2.0 | 0.00 | 0.00 | 0.00 | 53 | 1014.6 | |
| 20260903143537 | 83 | 0.0 | 0.0 | 0.00 | 0.00 | 0.00 | 55 | 1014.6 | |
| 20260903142537 | 82 | 0.0 | 0.0 | 0.00 | 0.00 | 0.00 | 58 | 1014.4 | |
| 20260903141518 | 81 | 0.0 | 0.0 | 0.00 | 0.00 | 0.00 | 57 | 1014.3 | |
| 20260903140517 | 82 | 0.0 | 0.0 | 0.00 | 0.00 | 0.00 | 56 | 1014.2 | |
| 20260903135537 | 82 | 0.0 | 0.0 | 0.00 | 0.00 | 0.00 | 60 | 1014.0 | |
| 20260903134517 | 81 | 0.0 | 0.0 | 0.00 | 0.00 | 0.00 | 61 | 1013.9 | |
| 20260903133517 | 81 | 0.0 | 0.0 | 0.00 | 0.00 | 0.00 | 60 | 1013.8 | |
| 20260903132517 | 81 | 0.0 | 0.0 | 0.00 | 0.00 | 0.00 | 60 | 1013.6 | |
| 20260903131517 | 81 | 0.0 | 0.0 | 0.00 | 0.00 | 0.00 | 60 | 1013.6 | |
| 20260903130538 | 81 | 0.0 | 0.0 | 0.00 | 0.00 | 0.00 | 60 | 1013.5 | |
| 20260903125517 | 81 | 0.0 | 0.0 | 0.00 | 0.00 | 0.00 | 59 | 1013.5 | |
| 20260903124517 | 81 | 0.0 | 0.0 | 0.00 | 0.00 | 0.00 | 58 | 1013.6 | |
| 20260903123517 | 81 | 0.0 | 0.0 | 0.00 | 0.00 | 0.00 | 56 | 1013.5 | |
| 20260903122537 | 82 | 0.0 | 1.0 | 0.00 | 0.00 | 0.00 | 56 | 1013.3 | |
| 20260903121517 | 82 | 0.0 | 2.0 | 0.00 | 0.00 | 0.00 | 57 | 1013.4 | |
| 20260903120517 | 82 | 0.0 | 1.0 | 0.00 | 0.00 | 0.00 | 56 | 1013.3 | |
| 20260903115537 | 82 | 0.0 | 1.0 | 0.00 | 0.00 | 0.00 | 56 | 1013.2 | |
| 20260903114516 | 82 | 0.0 | 2.0 | 0.00 | 0.00 | 0.00 | 54 | 1013.3 | |
| 20260903113617 | 83 | 0.0 | 2.0 | 0.00 | 0.00 | 0.00 | 52 | 1013.2 | |
| 20260903112517 | 83 | 0 | 1.0 | 3.0 | 0.00 | 0.00 | 0.00 | 51 | 1013.2 |
| 20260903111517 | 83 | 0 | 1.0 | 8.0 | 0.00 | 0.00 | 0.00 | 50 | 1013.1 |
| 20260903110517 | 83 | 0 | 1.0 | 2.0 | 0.00 | 0.00 | 0.00 | 49 | 1013.1 |
| 20260903105536 | 84 | 0 | 1.0 | 3.0 | 0.00 | 0.00 | 0.00 | 47 | 1013.1 |
| 20260903104537 | 84 | 0 | 1.0 | 4.0 | 0.00 | 0.00 | 0.00 | 45 | 1013.0 |
| 20260903103537 | 84 | 0 | 1.0 | 3.0 | 0.00 | 0.00 | 0.00 | 44 | 1013.1 |
| 20260903102516 | 84 | 0.0 | 3.0 | 0.00 | 0.00 | 0.00 | 41 | 1013.1 | |
| 20260903101516 | 84 | 0 | 1.0 | 3.0 | 0.00 | 0.00 | 0.00 | 41 | 1013.0 |
| 20260903100517 | 84 | 0 | 1.0 | 3.0 | 0.00 | 0.00 | 0.00 | 40 | 1013.1 |
| 20260903095517 | 84 | 0 | 1.0 | 3.0 | 0.00 | 0.00 | 0.00 | 32 | 1013.1 |
| 20260903094517 | 84 | 0 | 3.0 | 5.0 | 0.00 | 0.00 | 0.00 | 38 | 1013.2 |
| 20260903093537 | 83 | 0 | 1.0 | 3.0 | 0.00 | 0.00 | 0.00 | 32 | 1013.0 |
| 20260903092516 | 84 | 0.0 | 1.0 | 0.00 | 0.00 | 0.00 | 30 | 1012.9 | |
| 20260903091536 | 84 | 0.0 | 0.0 | 0.00 | 0.00 | 0.00 | 29 | 1012.7 | |
| 20260903090516 | 83 | 0.0 | 0.0 | 0.00 | 0.00 | 0.00 | 28 | 1012.6 | |
| 20260903085516 | 84 | 0.0 | 0.0 | 0.00 | 0.00 | 0.00 | 29 | 1012.6 | |
| 20260903084516 | 84 | 0.0 | 1.0 | 0.00 | 0.00 | 0.00 | 29 | 1012.7 | |
| 20260903083516 | 84 | 0.0 | 0.0 | 0.00 | 0.00 | 0.00 | 30 | 1012.8 | |
| 20260903082516 | 84 | 0.0 | 0.0 | 0.00 | 0.00 | 0.00 | 31 | 1012.8 | |
| 20260903081516 | 84 | 0.0 | 1.0 | 0.00 | 0.00 | 0.00 | 32 | 1012.8 | |
| 20260903080536 | 84 | 0.0 | 0.0 | 0.00 | 0.00 | 0.00 | 33 | 1012.8 | |
| 20260903075556 | 85 | 0.0 | 1.0 | 0.00 | 0.00 | 0.00 | 33 | 1012.8 | |
| 20260903074516 | 85 | 0.0 | 0.0 | 0.00 | 0.00 | 0.00 | 34 | 1012.7 | |
| 20260903073516 | 85 | 0.0 | 1.0 | 0.00 | 0.00 | 0.00 | 35 | 1012.8 | |
| 20260903072516 | 86 | 0.0 | 0.0 | 0.00 | 0.00 | 0.00 | 35 | 1012.9 | |
| 20260903071536 | 86 | 0.0 | 1.0 | 0.00 | 0.00 | 0.00 | 36 | 1012.8 | |
| 20260903070516 | 87 | 0.0 | 0.0 | 0.00 | 0.00 | 0.00 | 37 | 1012.8 | |
| 20260903065516 | 87 | 0.0 | 0.0 | 0.00 | 0.00 | 0.00 | 37 | 1012.6 | |
| 20260903064516 | 88 | 0.0 | 0.0 | 0.00 | 0.00 | 0.00 | 37 | 1012.6 | |
| 20260903063515 | 88 | 0.0 | 0.0 | 0.00 | 0.00 | 0.00 | 37 | 1012.9 | |
| 20260903062516 | 88 | 0.0 | 0.0 | 0.00 | 0.00 | 0.00 | 37 | 1012.8 | |
| 20260903061516 | 88 | 0.0 | 1.0 | 0.00 | 0.00 | 0.00 | 38 | 1012.7 | |
| 20260903060518 | 88 | 0.0 | 0.0 | 0.00 | 0.00 | 0.00 | 38 | 1012.7 | |
| 20260903055518 | 88 | 0.0 | 0.0 | 0.00 | 0.00 | 0.00 | 37 | 1012.7 | |
| 20260903054517 | 89 | 0.0 | 1.0 | 0.00 | 0.00 | 0.00 | 35 | 1012.6 | |
| 20260903053538 | 89 | 0.0 | 0.0 | 0.00 | 0.00 | 0.00 | 35 | 1012.6 | |
| 20260903052517 | 89 | 0.0 | 1.0 | 0.00 | 0.00 | 0.00 | 34 | 1012.6 | |
| 20260903051517 | 89 | 0.0 | 0.0 | 0.00 | 0.00 | 0.00 | 34 | 1012.6 | |
| 20260903050557 | 90 | 0.0 | 0.0 | 0.00 | 0.00 | 0.00 | 34 | 1012.7 | |
| 20260903045518 | 90 | 0.0 | 0.0 | 0.00 | 0.00 | 0.00 | 34 | 1012.7 | |
| 20260903044517 | 90 | 0.0 | 1.0 | 0.00 | 0.00 | 0.00 | 35 | 1012.6 | |
| 20260903043517 | 91 | 0.0 | 1.0 | 0.00 | 0.00 | 0.00 | 34 | 1012.7 | |
| 20260903042517 | 91 | 0.0 | 2.0 | 0.00 | 0.00 | 0.00 | 34 | 1012.8 | |
| 20260903041517 | 91 | 0.0 | 2.0 | 0.00 | 0.00 | 0.00 | 34 | 1012.5 | |
| 20260903040517 | 92 | 0.0 | 1.0 | 0.00 | 0.00 | 0.00 | 34 | 1012.3 | |
| 20260903035517 | 92 | 0.0 | 0.0 | 0.00 | 0.00 | 0.00 | 33 | 1012.3 | |
| 20260903034517 | 92 | 0 | 1.0 | 3.0 | 0.00 | 0.00 | 0.00 | 33 | 1012.2 |
| 20260903033518 | 92 | 0 | 1.0 | 4.0 | 0.00 | 0.00 | 0.00 | 32 | 1012.2 |
| 20260903032537 | 92 | 0.0 | 2.0 | 0.00 | 0.00 | 0.00 | 32 | 1012.1 | |
| 20260903031537 | 92 | 0.0 | 2.0 | 0.00 | 0.00 | 0.00 | 32 | 1012.0 | |
| 20260903030517 | 92 | 0.0 | 2.0 | 0.00 | 0.00 | 0.00 | 31 | 1011.9 | |
| 20260903025517 | 93 | 0.0 | 2.0 | 0.00 | 0.00 | 0.00 | 31 | 1011.8 | |
| 20260903024517 | 93 | 0 | 1.0 | 3.0 | 0.00 | 0.00 | 0.00 | 31 | 1011.7 |
| 20260903023517 | 93 | 0 | 1.0 | 3.0 | 0.00 | 0.00 | 0.00 | 31 | 1011.6 |
| 20260903022517 | 93 | 0 | 1.0 | 3.0 | 0.00 | 0.00 | 0.00 | 31 | 1011.5 |
| 20260903021537 | 93 | 0 | 2.0 | 4.0 | 0.00 | 0.00 | 0.00 | 31 | 1011.2 |
| 20260903020517 | 93 | 0.0 | 2.0 | 0.00 | 0.00 | 0.00 | 31 | 1011.2 | |
| 20260903015517 | 93 | 0 | 1.0 | 2.0 | 0.00 | 0.00 | 0.00 | 30 | 1011.1 |
| 20260903014517 | 94 | 0 | 1.0 | 4.0 | 0.00 | 0.00 | 0.00 | 31 | 1011.0 |
| 20260903013537 | 94 | 0 | 1.0 | 3.0 | 0.00 | 0.00 | 0.00 | 31 | 1011.1 |
| 20260903012517 | 95 | 0.0 | 3.0 | 0.00 | 0.00 | 0.00 | 31 | 1011.0 | |
| 20260903011537 | 95 | 0 | 1.0 | 4.0 | 0.00 | 0.00 | 0.00 | 31 | 1011.1 |
| 20260903010537 | 96 | 0 | 1.0 | 2.0 | 0.00 | 0.00 | 0.00 | 30 | 1011.1 |
| 20260903005517 | 96 | 0 | 1.0 | 4.0 | 0.00 | 0.00 | 0.00 | 30 | 1011.2 |
| 20260903004517 | 96 | 0 | 2.0 | 5.0 | 0.00 | 0.00 | 0.00 | 30 | 1011.2 |
| 20260903003516 | 96 | 0 | 1.0 | 4.0 | 0.00 | 0.00 | 0.00 | 29 | 1011.2 |
| 20260903002517 | 97 | 225 | 1.0 | 3.0 | 0.00 | 0.00 | 0.00 | 29 | 1011.3 |
| 20260903001516 | 97 | 248 | 1.0 | 4.0 | 0.00 | 0.00 | 0.00 | 29 | 1011.3 |
| 20260903000518 | 97 | 0 | 3.0 | 6.0 | 0.00 | 0.00 | 0.00 | 28 | 1011.4 |
| 20260902235516 | 98 | 248 | 2.0 | 4.0 | 0.00 | 0.00 | 0.00 | 28 | 1011.6 |
| 20260902234516 | 99 | 225 | 1.0 | 4.0 | 0.00 | 0.00 | 0.00 | 28 | 1011.6 |
| 20260902233516 | 99 | 180 | 1.0 | 4.0 | 0.00 | 0.00 | 0.00 | 28 | 1011.7 |
| 20260902232516 | 100 | 225 | 1.0 | 4.0 | 0.00 | 0.00 | 0.00 | 27 | 1012.0 |
| 20260902231516 | 100 | 203 | 2.0 | 4.0 | 0.00 | 0.00 | 0.00 | 26 | 1012.1 |
| 20260902230537 | 100 | 180 | 2.0 | 7.0 | 0.00 | 0.00 | 0.00 | 26 | 1012.2 |
| 20260902225517 | 100 | 180 | 1.0 | 5.0 | 0.00 | 0.00 | 0.00 | 27 | 1012.3 |
| 20260902224516 | 100 | 248 | 2.0 | 5.0 | 0.00 | 0.00 | 0.00 | 26 | 1012.5 |
| 20260902223516 | 99 | 180 | 1.0 | 3.0 | 0.00 | 0.00 | 0.00 | 27 | 1012.6 |
| 20260902222516 | 99 | 203 | 1.0 | 4.0 | 0.00 | 0.00 | 0.00 | 27 | 1012.8 |
| 20260902221516 | 100 | 225 | 1.0 | 4.0 | 0.00 | 0.00 | 0.00 | 27 | 1013.0 |
| 20260902220517 | 100 | 180 | 3.0 | 9.0 | 0.00 | 0.00 | 0.00 | 27 | 1013.0 |
| 20260902215516 | 99 | 270 | 1.0 | 6.0 | 0.00 | 0.00 | 0.00 | 28 | 1013.1 |
| 20260902214536 | 99 | 180 | 2.0 | 8.0 | 0.00 | 0.00 | 0.00 | 29 | 1013.2 |
| 20260902213537 | 98 | 180 | 4.0 | 8.0 | 0.00 | 0.00 | 0.00 | 30 | 1013.3 |
| 20260902212516 | 99 | 0 | 1.0 | 3.0 | 0.00 | 0.00 | 0.00 | 28 | 1013.3 |
| 20260902211516 | 98 | 0 | 2.0 | 6.0 | 0.00 | 0.00 | 0.00 | 30 | 1013.5 |
| 20260902210536 | 97 | 0 | 2.0 | 5.0 | 0.00 | 0.00 | 0.00 | 29 | 1013.6 |
| 20260902205516 | 97 | 0 | 3.0 | 9.0 | 0.00 | 0.00 | 0.00 | 30 | 1013.9 |
| 20260902204516 | 96 | 0 | 3.0 | 8.0 | 0.00 | 0.00 | 0.00 | 31 | 1013.8 |
| 20260902203536 | 97 | 0 | 5.0 | 9.0 | 0.00 | 0.00 | 0.00 | 30 | 1014.3 |
| 20260902202516 | 97 | 0 | 5.0 | 9.0 | 0.00 | 0.00 | 0.00 | 30 | 1014.4 |
| 20260902201539 | 97 | 0 | 3.0 | 7.0 | 0.00 | 0.00 | 0.00 | 29 | 1014.4 |
| 20260902200516 | 96 | 0 | 3.0 | 8.0 | 0.00 | 0.00 | 0.00 | 31 | 1014.5 |
| 20260902195516 | 96 | 0 | 6.0 | 11.0 | 0.00 | 0.00 | 0.00 | 31 | 1014.7 |
| 20260902194516 | 97 | 0 | 4.0 | 12.0 | 0.00 | 0.00 | 0.00 | 30 | 1014.9 |
| 20260902193516 | 97 | 0 | 3.0 | 8.0 | 0.00 | 0.00 | 0.00 | 31 | 1015.2 |
| 20260902192536 | 96 | 0 | 2.0 | 5.0 | 0.00 | 0.00 | 0.00 | 33 | 1015.1 |
| 20260902191536 | 96 | 0 | 2.0 | 8.0 | 0.00 | 0.00 | 0.00 | 32 | 1015.3 |
| 20260902190516 | 95 | 0 | 4.0 | 7.0 | 0.00 | 0.00 | 0.00 | 31 | 1015.5 |
| 20260902185516 | 95 | 0 | 4.0 | 9.0 | 0.00 | 0.00 | 0.00 | 32 | 1015.5 |
| 20260902184536 | 94 | 0 | 3.0 | 7.0 | 0.00 | 0.00 | 0.00 | 34 | 1015.6 |
| 20260902183556 | 94 | 0 | 5.0 | 10.0 | 0.00 | 0.00 | 0.00 | 35 | 1015.7 |
| 20260902182516 | 94 | 0 | 4.0 | 9.0 | 0.00 | 0.00 | 0.00 | 39 | 1016.0 |
| 20260902181516 | 94 | 0 | 3.0 | 5.0 | 0.00 | 0.00 | 0.00 | 39 | 1016.1 |
| 20260902180516 | 93 | 0 | 3.0 | 7.0 | 0.00 | 0.00 | 0.00 | 41 | 1016.2 |
| 20260902175515 | 93 | 0 | 2.0 | 4.0 | 0.00 | 0.00 | 0.00 | 42 | 1016.2 |
| 20260902174515 | 92 | 0 | 2.0 | 5.0 | 0.00 | 0.00 | 0.00 | 43 | 1016.2 |
| 20260902173515 | 92 | 0 | 3.0 | 5.0 | 0.00 | 0.00 | 0.00 | 44 | 1016.3 |
| 20260902172515 | 91 | 0 | 2.0 | 7.0 | 0.00 | 0.00 | 0.00 | 45 | 1016.3 |
| 20260902171516 | 92 | 0 | 3.0 | 7.0 | 0.00 | 0.00 | 0.00 | 45 | 1016.4 |
| 20260902170515 | 91 | 0 | 3.0 | 9.0 | 0.00 | 0.00 | 0.00 | 44 | 1016.2 |
| 20260902165536 | 91 | 0 | 2.0 | 4.0 | 0.00 | 0.00 | 0.00 | 46 | 1016.3 |
| 20260902164515 | 90 | 0 | 1.0 | 3.0 | 0.00 | 0.00 | 0.00 | 47 | 1016.3 |
| 20260902163516 | 90 | 0 | 3.0 | 6.0 | 0.00 | 0.00 | 0.00 | 47 | 1016.2 |
| 20260902162515 | 89 | 0 | 2.0 | 6.0 | 0.00 | 0.00 | 0.00 | 49 | 1016.3 |